SCOUT A DEB, 3122

Orbit data source: Space-Track

SCOUT A DEB, 3122 is space debris in LEO originally from a launch on Mon, 25 Sep 1967 UTC launched from the Air Force Western Test Range (AFWTR). Debris objects in space refer to the collection of defunct objects orbiting the Earth. Examples of debris include non-operational satellites, rocket bodies, and fragments generated from explosions, collisions, or faulty payload assembly.

Loading next visibility...
Identifier
3122, 1967-092D
Orbit
LEO
Country
Flag of USUS
Related business
Manufacturer
Unknown
Mission
Spacecraft
Bus & Motor
Unknown
Mass
Unknown
Launch date (UTC)
1967-09-25 (58 years ago)
Launch vehicle
Unknown
Launch site
Air Force Western Test Range (AFWTR)
Object type
Payload
Rocket body
Debris
Shape & HBR
Unknown
Radar Cross Section
Small (<0.1 m²)

Expand to show TLE details & history
Last TLE update: 1 day ago

TLE from 1 day ago
0 SCOUT A DEB
1 03122U 67092D   25257.60567979  .00000200  00000-0  39641-3 0  9990
2 03122  89.0636 113.2608 0184186 269.1674 146.0186 13.25860676546506
Epoch: 2025-09-14T14:32Z
TLE epoch observation values (Epoch: 2025-09-14T14:32:10.733Z)
Latitude
56.42214°
Longitude
-97.2024°
Altitude
1,287.874 km
Speed
7.162 km/s
True Right ascension
07h 38m 39s
True Declination
56° 16' 28"
Sunlit
Object was in daylight at epoch
Visualization orbit readout
Latitude
Unknown
Longitude
Unknown
Altitude
Unknown
Speed
Unknown
Apparent Right ascension
Unknown
Apparent Declination
Unknown
Sunlit
N/A
Visualization observer readout
Local Sidereal Time
12:16:39
Azimuth
Unknown
Elevation
Unknown
Doppler factor
Unknown
Orbital elements
Apogee altitude
1,298.336 km
Perigee altitude
1,020.67 km
Semi-major axis
7,537.64 km
Eccentricity
0.01842
Inclination
89.0636°
RAAN
113.2608°
Arg. of periapsis
269.1674°
True anomaly
147.17608°
Mean anomaly
146.0186°
Eccentric anomaly
146.59953°
Mean motion
3.31658 °/min
Orbital period
108.55 mins
BSTAR
0.00039641
Loading maneuver chart data...
Computing Atmospheric mass density...
Loading historical data...
Loading historical data...
Loading historical data...
Loading historical data...
Loading historical data...
Loading historical data...
Loading historical data...

Documentation

Showing up to 5 results
|